This is the latest recevied weather packets stored in our database for station/object K5NWZ. If no packets are shown the sender has not sent any weather packets the latest 10 day(s).
| Time | Temp. | Humidity | Pressure | Rain* | Wind** | Luminosity | Snow |
|---|---|---|---|---|---|---|---|
| 1777981268 | 1.11° C | 95% | 1023.5 hPa | 0 mm | - | 0 W/m² | - |
| 1777980965 | 1.11° C | 95% | 1023.3 hPa | 0 mm | - | 0 W/m² | - |
| 1777980662 | 1.11° C | 95% | 1023.4 hPa | 0 mm | - | 0 W/m² | - |
| 1777980358 | 1.11° C | 95% | 1023.3 hPa | 1.78 mm | - | 0 W/m² | - |
| 1777980056 | 1.11° C | 95% | 1023.3 hPa | 1.78 mm | - | 0 W/m² | - |
| 1777979755 | 1.11° C | 95% | 1023.2 hPa | 0 mm | - | 0 W/m² | - |
| 1777979452 | 0.56° C | 95% | 1023.2 hPa | 0 mm | - | 0 W/m² | - |
| 1777979149 | 0.56° C | 95% | 1023.3 hPa | 1.27 mm | - | 0 W/m² | - |
| 1777978845 | 1.11° C | 95% | 1023.1 hPa | 1.27 mm | - | 0 W/m² | - |
| 1777978542 | 1.11° C | 95% | 1023.1 hPa | 0 mm | - | 0 W/m² | - |
| 1777978237 | 1.11° C | 95% | 1023 hPa | 0 mm | - | 0 W/m² | - |
| 1777977930 | 1.11° C | 94% | 1023 hPa | 0 mm | - | 0 W/m² | - |
| 1777977627 | 1.11° C | 94% | 1022.8 hPa | 0 mm | - | 0 W/m² | - |
| 1777977324 | 1.11° C | 94% | 1023 hPa | 1.78 mm | - | 0 W/m² | - |
| 1777977021 | 1.67° C | 94% | 1022.8 hPa | 1.78 mm | - | 0 W/m² | - |
| 1777976718 | 1.67° C | 94% | 1022.6 hPa | 1.27 mm | - | 0 W/m² | - |
| 1777976415 | 1.67° C | 94% | 1022.8 hPa | 3.05 mm | - | 0 W/m² | - |
| 1777976114 | 1.67° C | 94% | 1022.7 hPa | 3.05 mm | - | 0 W/m² | - |
| 1777975809 | 2.22° C | 94% | 1022.7 hPa | 3.05 mm | - | 0 W/m² | - |
| 1777975507 | 2.22° C | 94% | 1022.7 hPa | 3.05 mm | - | 0 W/m² | - |
| 1777975203 | 2.22° C | 94% | 1022.7 hPa | 3.05 mm | - | 0 W/m² | - |
| 1777974900 | 2.78° C | 94% | 1022.5 hPa | 1.78 mm | - | 0 W/m² | - |
| 1777974595 | 2.78° C | 94% | 1022.6 hPa | 0 mm | - | 0 W/m² | - |
| 1777974293 | 2.78° C | 94% | 1022.5 hPa | 0 mm | - | 0 W/m² | - |
| 1777973989 | 2.78° C | 94% | 1022.6 hPa | 1.27 mm | - | 0 W/m² | - |
* Rain latest hour (hover to see other rain measurements)
** Current wind speed in m/s (hover to see current wind gust speed)